Location: Beaudricourt
(50.2483°N, 2.4074°E)
Time: 07:44:18
(UTC+00:00)

Daily predictions for brighter satellites

Satellite Brightness Start Highest point End
(mag) Time Altitude Azimuth Time Altitude Azimuth Time Altitude Azimuth
Cosmos 1464 Rocket 4.1 20:05:29 10° N 20:11:52 86° E 20:18:07 10° S
Meteor 2-2 Rocket 4.4 20:06:57 10° S 20:12:56 69° E 20:18:54 10° NNE
Okean O Rocket 2.7 20:12:59 10° S 20:17:15 45° W 20:21:32 10° NNW
Terra 2.5 20:14:42 10° SE 20:19:05 40° ENE 20:23:30 10° N
USA 234 4.2 20:12:48 10° ENE 20:19:05 51° N 20:25:22 10° WNW
Cosmos 1656 Rocket 4.1 20:16:25 10° NNW 20:21:44 52° NE 20:27:05 10° SE
Cosmos 1371 Rocket 4.3 20:17:07 10° NNW 20:22:25 60° ENE 20:27:42 10° SE
ERS-1 Rocket 3.3 20:19:42 10° SE 20:24:34 54° ENE 20:29:29 10° N
MOS 1 4.4 20:19:37 10° SSE 20:25:19 83° WSW 20:31:02 10° NNW
ATLAS 2AS CENTAUR R/B 2.9 20:18:17 10° SW 20:25:41 87° NW 20:32:50 10° NE
SPOT 3 Rocket 4.2 20:24:31 10° SE 20:29:20 42° ENE 20:34:11 10° N
USA 59 Rocket 2.3 20:27:46 10° N 20:29:26 13° NNE 20:31:16 10° NE
Cosmos 1782 3.1 20:26:21 10° SSW 20:30:08 67° WNW 20:33:57 10° N
IRS-1A Rocket 4.3 20:26:25 10° SSE 20:32:04 79° ENE 20:37:40 10° NNW
Meteor 1-26 Rocket 4.5 20:27:46 10° S 20:33:43 62° E 20:39:39 10° NNE
Cosmos 1943 Rocket 3.2 20:28:32 10° NW 20:33:53 43° WSW 20:39:10 10° S
USA 281 3.6 20:27:56 10° SE 20:34:17 54° NE 20:40:41 10° NNW
Cosmos 1420 Rocket 4.1 20:29:38 10° NNW 20:34:59 85° ENE 20:40:18 10° SSE
Cosmos 1743 3.1 20:34:47 10° N 20:38:15 42° ENE 20:41:25 12° SE
Cosmos 2278 Rocket 4.1 20:33:53 10° NW 20:38:26 25° WSW 20:42:58 10° SSW
ISS -3.4 20:36:02 10° W 20:39:22 67° N 20:42:41 10° E
NOSS 3-1 (A) 4.3 20:32:14 10° NW 20:39:25 71° SW 20:48:10 10° SSE
Cosmos 972 4.3 20:35:39 10° SSW 20:40:32 84° ESE 20:45:33 10° NNE
USA 245 1.9 20:42:39 14° SSE 20:44:31 62° ENE 20:46:44 10° N
Cosmos 2297 3.8 20:40:19 10° NNW 20:46:06 77° ENE 20:51:24 12° SE
Cosmos 1634 Rocket 4.2 20:40:23 10° N 20:46:39 61° ENE 20:52:38 11° SSE
Cosmos 2112 Rocket 4.1 20:44:45 10° S 20:49:59 63° ESE 20:55:14 10° NNE
USA 290 3.0 20:47:22 10° NW 20:50:29 46° WSW 20:53:34 10° S
Cosmos 1766 Rocket 3.6 20:46:57 10° N 20:51:24 70° ENE 20:55:32 12° SSE
Okean-O 3.9 20:47:59 10° SSW 20:52:06 38° W 20:56:14 10° NNW
USA 229 DEB 4.1 20:47:03 10° NW 20:54:22 74° NE 21:01:46 12° SE
USA 229 4.1 20:47:09 10° NW 20:54:28 74° NE 21:01:53 12° SE
Cosmos 2034 Rocket 4.3 20:49:27 10° NNW 20:55:37 69° W 21:01:48 10° S
Cosmos 1726 3.1 20:54:03 10° NNE 20:56:45 26° ENE 20:58:35 16° ESE
Spot 2 Rocket 3.5 20:54:06 11° SSE 20:58:52 80° ENE 21:03:56 10° NNW
Cosmos 1680 Rocket 3.5 20:54:56 10° SSW 21:00:14 86° ESE 21:05:32 10° NNE
Meteor 2-6 Rocket 4.4 20:58:57 10° S 21:04:26 55° E 21:09:48 10° NNE
USA 32 4.0 21:01:40 10° S 21:06:52 75° E 21:12:06 10° N
Tsikada Rocket 4.0 21:03:08 10° S 21:09:19 89° E 21:15:37 10° N
Sich 1 4.4 21:09:29 10° N 21:13:12 26° ENE 21:15:51 15° ESE
USA 276 1.5 21:12:22 10° W 21:14:31 49° SSW 21:15:14 32° SE
MetOp-A 4.0 21:11:24 17° SE 21:14:38 55° ENE 21:19:18 10° N
Cosmos 2263 4.3 21:09:53 10° NNW 21:15:36 75° ENE 21:20:00 17° SE
SL-16 R/B 2.2 21:09:57 10° SSW 21:15:37 89° WNW 21:21:21 10° NNE
MOS 1 Rocket 3.5 21:13:56 15° SSE 21:18:08 88° ENE 21:23:27 10° NNW
Cosmos 2056 Rocket 4.1 21:13:33 10° NNW 21:18:50 54° WSW 21:23:28 13° S
Lacrosse 5 3.0 21:15:05 10° WNW 21:19:38 33° SW 21:23:08 15° S
Cosmos 1536 3.3 21:16:18 10° N 21:20:00 42° ENE 21:22:15 21° SE
Ariane Rocket 3.2 21:16:49 13° S 21:21:21 70° WSW 21:26:26 10° NNW
Lacrosse 5 rocket 1.6 21:17:07 10° WSW 21:21:25 75° NNW 21:25:38 10° NE
Cosmos 1452 Rocket 3.8 21:17:51 10° NNW 21:23:03 59° ENE 21:26:45 19° SE
Cosmos 1408 Rocket 4.0 21:19:04 10° N 21:23:24 50° ENE 21:26:12 20° SE
Cosmos 44 3.9 21:18:53 10° NW 21:23:31 45° WSW 21:26:45 17° S
Spot 1 4.0 21:20:35 10° NNE 21:24:36 56° ESE 21:27:37 17° S
Cosmos 1340 4.2 21:24:42 10° NNE 21:27:20 20° ENE 21:28:49 16° ESE
Okean 1 4.2 21:25:59 21° SE 21:27:37 30° E 21:31:02 10° NNE
Cosmos 2221 3.2 21:23:52 10° SSW 21:28:06 55° WNW 21:32:22 10° N
Cosmos 2369 Rocket 2.3 21:22:40 10° NNW 21:28:15 72° WSW 21:32:23 18° SSE
Cosmos 2084 3.8 21:28:17 10° NW 21:31:52 42° SW 21:33:53 22° S
FALCON 9 R/B 4.4 21:29:07 10° SW 21:35:22 32° S 21:52:45 10° ESE
USA 306 3.1 21:37:47 10° WNW 21:41:34 58° NNE 21:45:08 12° E
Cosmos 921 Rocket 3.3 21:38:40 10° SSW 21:43:07 71° WNW 21:47:38 10° NNE
Okean 3 Rocket 3.9 21:40:43 10° NNW 21:45:05 61° W 21:48:05 19° S
GEOS 3 Rocket 3.6 21:41:09 10° NE 21:46:23 84° NW 21:51:31 10° SW
ATLAS 3B R/B 4.1 21:44:19 10° NW 21:51:10 34° WSW 21:57:02 13° S
Landsat 5 3.2 21:48:30 10° NNE 21:52:19 81° WNW 21:54:55 19° SSW
SL-8 R/B 4.2 21:50:03 10° SW 21:54:20 35° SSE 21:58:40 10° E
Cosmos 1500 Rocket 3.5 21:51:27 10° N 21:55:48 77° E 21:57:58 29° SSE
Terra 3.4 21:52:42 10° SSW 21:56:48 29° W 22:00:54 10° NNW
Cosmos 1733 3.2 21:55:27 10° N 21:58:56 57° ENE 22:00:07 35° SE
Cosmos 1943 3.2 21:53:57 13° SSW 21:58:58 69° ESE 22:04:37 10° NNE
ALOS 2 4.4 21:58:50 14° ESE 22:01:18 22° ENE 22:04:40 10° NNE
USA 234 3.9 21:55:12 10° E 22:01:35 57° NNE 22:07:58 10° WNW
Cosmos 1048 Rocket 3.9 21:59:01 14° SSW 22:03:25 84° ESE 22:08:35 10° NNE
H-2A R/B 3.3 22:02:30 24° ESE 22:04:23 38° ENE 22:08:18 10° N
Cosmos 1805 Rocket 3.5 22:00:20 10° N 22:04:43 79° ENE 22:06:48 31° SSE
Cosmos 1842 Rocket 4.2 22:01:42 13° SSW 22:05:32 53° WNW 22:09:54 10° N
Cosmos 494 Rocket 4.2 22:01:34 10° SSW 22:06:39 70° WNW 22:11:47 10° NNE
Lacrosse 4 Rocket 3.5 22:03:59 10° NNW 22:07:05 21° NE 22:10:13 10° E
Meteor 1-10 Rocket 4.3 22:02:23 16° SSW 22:07:07 83° WNW 22:12:49 10° N
Cosmos 1151 Rocket 3.5 22:08:37 31° SE 22:10:14 46° E 22:14:25 10° NNE
Meteor 2-9 Rocket 4.3 22:05:36 10° NNW 22:11:25 84° W 22:14:56 26° S
Cosmos 1302 Rocket 4.1 22:09:17 10° NNW 22:14:28 66° ENE 22:17:13 28° SE
Meteor 1-11 Rocket 4.0 22:09:06 10° NNW 22:14:39 64° W 22:18:13 23° S
ISS -3.8 22:12:45 10° WNW 22:16:02 59° SSW 22:16:32 51° SSE
Cosmos 1633 Rocket 4.2 22:12:17 10° N 22:16:18 33° ENE 22:18:08 24° ESE
Meteor 2-10 4.2 22:10:58 10° NNW 22:16:37 79° W 22:19:41 27° S
ATLAS 2AS CENTAUR R/B 4.4 22:10:51 10° W 22:17:29 36° NNW 22:23:51 10° NE
Meteor 1-19 Rocket 4.3 22:14:07 23° S 22:17:57 79° E 22:23:46 10° NNE
ARIANE 5 R/B 2.5 22:16:04 33° SSE 22:17:58 78° ENE 22:22:19 10° NNW
Cosmos 1340 Rocket 2.8 22:17:22 37° SSE 22:18:44 62° E 22:22:42 10° NNE
USA 281 4.1 22:14:24 17° SSW 22:18:58 39° WSW 22:25:07 10° NW
USA 59 Rocket 0.7 22:16:17 10° NW 22:19:51 46° NE 22:22:59 19° ESE
Cosmos 1331 Rocket 4.3 22:15:23 10° NNW 22:20:33 57° WSW 22:23:13 27° S
NOSS 2-1 (E) 4.2 22:17:09 10° NW 22:20:42 47° NE 22:23:49 19° ESE
MINOTAUR 4 R/B 3.5 22:19:07 10° NNE 22:22:06 65° ESE 22:22:22 60° SE
BREEZE-M DEB (TANK) 4.4 22:18:55 10° WSW 22:23:01 80° SSE 22:41:51 10° E
IRIDIUM 103 4.4 22:18:49 10° N 22:24:03 65° E 22:26:30 31° SSE
H-2A R/B 4.3 22:23:21 10° ENE 22:25:03 12° E 22:25:53 11° E
CZ-2C R/B 3.6 22:20:50 10° NNE 22:25:24 72° ESE 22:27:23 33° S
Cosmos 1726 3.9 22:27:32 10° NW 22:29:50 19° W 22:31:07 15° WSW
NOSS 2-1 (D) 3.8 22:28:44 10° NW 22:32:21 60° NE 22:34:55 25° ESE
Nadezhda 4 Rocket 4.0 22:30:39 23° SSW 22:34:43 83° W 22:41:00 10° N
Molniya-1 4.4 22:35:27 23° SSW 22:38:10 73° SE 22:49:38 10° NE
Cosmos 1805 3.0 22:35:30 10° N 22:39:14 89° WSW 22:40:09 50° S
IRIDIUM 106 4.3 22:37:06 10° N 22:42:22 90° NW 22:44:45 33° S
Cosmos 1743 Rocket 4.3 22:41:55 10° NNW 22:46:05 44° W 22:47:56 28° SW
Sich 1 4.1 22:46:43 10° NNW 22:50:44 37° W 22:52:35 25° SW
Spot 2 4.3 22:50:57 37° SSE 22:52:42 73° ENE 22:57:31 10° NNW
Cosmos 1975 2.7 22:52:13 10° NNW 22:56:10 76° W 22:57:09 49° S
Lacrosse 5 rocket 3.1 22:56:21 10° WNW 23:00:15 34° N 23:04:03 10° ENE
Cosmos 1340 3.7 22:58:38 10° NNW 23:01:39 29° W 23:02:14 28° WSW
Cosmos 1603 4.0 22:57:29 16° SW 23:02:03 67° WNW 23:07:47 10° NNE
Cosmos 1626 1.7 23:04:41 66° ESE 23:04:45 67° E 23:07:59 10° NNE
PSLV R/B 4.4 23:02:45 10° N 23:06:45 54° WNW 23:08:26 31° SW
USA 267 3.4 23:00:48 10° ENE 23:07:09 51° SE 23:10:42 26° SSW
NOSS 2-1 (C) 3.4 23:03:49 10° NW 23:07:35 77° SW 23:09:08 41° SSE
Cosmos 1674 3.8 23:07:50 27° E 23:07:56 27° E 23:10:56 10° NNE
Cosmos 2369 Rocket 4.4 23:09:05 10° WNW 23:11:14 12° W 23:13:24 10° WSW
PSLV R/B 4.4 23:08:36 10° NNE 23:12:56 39° E 23:13:59 34° SE
USA 306 2.8 23:11:34 10° WNW 23:15:15 50° SW 23:15:15 50° SW
Cosmos 2026 Rocket 4.1 23:12:23 29° SSW 23:15:52 77° WNW 23:22:10 10° N
Cosmos 1833 Rocket 3.8 23:17:10 25° SE 23:18:33 28° ESE 23:23:13 10° NE
NOSS 3-3 (C) 4.3 23:26:06 34° SSE 23:27:35 41° ESE 23:33:27 10° NE
SL-24 R/B 4.4 23:25:49 10° NNE 23:30:13 60° ESE 23:31:32 42° SSE
Cosmos 220 Rocket 3.9 23:30:05 45° SSW 23:31:23 86° WNW 23:35:45 10° NNE
Cosmos 1515 Rocket 3.6 23:31:37 47° SSE 23:32:40 66° E 23:36:58 10° NNE
GP-B 4.2 23:30:30 10° NNE 23:34:30 33° E 23:35:54 27° ESE
Cosmos 1328 Rocket 3.9 23:33:11 38° SW 23:34:37 59° WNW 23:38:55 10° N
SL-8 R/B 3.5 23:31:39 10° WSW 23:36:24 68° S 23:41:09 10° E
Cosmos 1553 Rocket 3.9 23:30:50 10° NNW 23:36:56 79° W 23:39:39 35° S
ALOS 2 3.0 23:36:13 40° SW 23:37:19 51° W 23:41:38 10° NNW
H-2A R/B 3.9 23:38:30 23° WSW 23:39:27 25° W 23:42:56 10° NW
Cosmos 1470 Rocket 3.8 23:36:11 10° NNW 23:40:37 61° W 23:41:47 44° SSW
Cosmos 1869 Rocket 4.2 23:37:15 10° N 23:41:27 46° ENE 23:42:58 32° SE
USA 234 3.2 23:38:50 15° SE 23:44:28 79° SSW 23:51:04 10° WNW
Lacrosse 4 Rocket 1.3 23:41:44 10° NW 23:45:47 70° WSW 23:46:28 56° S
Meteor 2-4 Rocket 4.5 23:42:30 23° SW 23:45:55 49° WNW 23:51:42 10° N
NOSS 8 (A) 4.4 23:46:21 54° WSW 23:47:00 73° NW 23:50:04 10° NE
Cosmos 1633 Rocket 4.3 23:50:07 10° NNW 23:53:57 29° W 23:55:08 26° WSW
